Time,TemperatureF,DewpointF,PressureIn,WindDirection,WindDirectionDegrees,WindSpeedMPH,WindSpeedGustMPH,Humidity,HourlyPrecipIn,Conditions,Clouds,dailyrainin,SoftwareType,DateUTC
2013-03-04 00:01:00,28.0,14.0,-100.00,ESE,115,15.0,19.0,56,0.00,,,0.00,,2013-03-04 00:01:00,
2013-03-04 00:11:00,28.0,14.0,-100.00,ESE,115,16.0,20.0,56,0.00,,,0.00,,2013-03-04 00:11:00,
2013-03-04 00:21:00,28.0,14.0,-100.00,ESE,110,15.0,20.0,56,0.00,,,0.00,,2013-03-04 00:21:00,
2013-03-04 00:32:00,28.0,14.0,-100.00,ESE,110,12.0,19.0,57,0.00,,,0.00,,2013-03-04 00:32:00,
2013-03-04 00:42:00,28.0,14.0,-100.00,ESE,105,14.0,17.0,57,0.00,,,0.00,,2013-03-04 00:42:00,
2013-03-04 00:52:00,27.0,14.0,-100.00,ESE,105,13.0,18.0,57,0.00,,,0.00,,2013-03-04 00:52:00,
2013-03-04 01:01:00,27.0,16.0,-100.00,ESE,105,12.0,16.0,59,0.00,,,0.00,,2013-03-04 01:01:00,
2013-03-04 01:11:00,27.0,16.0,-100.00,ESE,105,14.0,19.0,59,0.00,,,0.00,,2013-03-04 01:11:00,
2013-03-04 01:21:00,27.0,16.0,-100.00,ESE,110,14.0,19.0,59,0.00,,,0.00,,2013-03-04 01:21:00,
2013-03-04 01:31:00,27.0,16.0,-100.00,ESE,105,14.0,19.0,59,0.00,,,0.00,,2013-03-04 01:31:00,
2013-03-04 01:42:00,27.0,16.0,-100.00,ESE,110,13.0,18.0,59,0.00,,,0.00,,2013-03-04 01:42:00,
2013-03-04 01:51:00,27.0,16.0,-100.00,ESE,110,11.0,18.0,59,0.00,,,0.00,,2013-03-04 01:51:00,
2013-03-04 02:01:00,27.0,16.0,-100.00,ESE,110,15.0,19.0,60,0.00,,,0.00,,2013-03-04 02:01:00,
2013-03-04 02:11:00,27.0,16.0,-100.00,ESE,105,13.0,18.0,61,0.00,,,0.00,,2013-03-04 02:11:00,
2013-03-04 02:22:00,27.0,16.0,-100.00,ESE,110,16.0,21.0,61,0.00,,,0.00,,2013-03-04 02:22:00,
2013-03-04 02:32:00,27.0,16.0,-100.00,ESE,105,14.0,22.0,61,0.00,,,0.00,,2013-03-04 02:32:00,
2013-03-04 02:42:00,27.0,16.0,-100.00,ESE,110,16.0,21.0,61,0.00,,,0.00,,2013-03-04 02:42:00,
2013-03-04 02:52:00,27.0,16.0,-100.00,ESE,115,17.0,21.0,61,0.00,,,0.00,,2013-03-04 02:52:00,
2013-03-04 03:01:00,27.0,16.0,-100.00,ESE,110,14.0,20.0,61,0.00,,,0.00,,2013-03-04 03:01:00,
2013-03-04 03:11:00,27.0,16.0,-100.00,ESE,115,14.0,21.0,62,0.00,,,0.00,,2013-03-04 03:11:00,
2013-03-04 03:21:00,27.0,16.0,-100.00,SE,125,16.0,22.0,62,0.00,,,0.00,,2013-03-04 03:21:00,
2013-03-04 03:32:00,27.0,16.0,-100.00,ESE,120,16.0,22.0,61,0.00,,,0.00,,2013-03-04 03:32:00,
2013-03-04 03:42:00,27.0,16.0,-100.00,SE,125,16.0,19.0,61,0.00,,,0.00,,2013-03-04 03:42:00,
2013-03-04 03:52:00,27.0,16.0,-100.00,ESE,120,13.0,22.0,61,0.00,,,0.00,,2013-03-04 03:52:00,
2013-03-04 04:01:00,27.0,16.0,-100.00,ESE,120,17.0,21.0,61,0.00,,,0.00,,2013-03-04 04:01:00,
2013-03-04 04:11:00,27.0,16.0,-100.00,ESE,120,14.0,23.0,61,0.00,,,0.00,,2013-03-04 04:11:00,
2013-03-04 04:22:00,27.0,16.0,-100.00,SE,130,16.0,24.0,61,0.00,,,0.00,,2013-03-04 04:22:00,
2013-03-04 04:32:00,27.0,16.0,-100.00,SE,135,19.0,25.0,61,0.00,,,0.00,,2013-03-04 04:32:00,
2013-03-04 04:42:00,26.0,16.0,-100.00,SE,130,15.0,24.0,61,0.00,,,0.00,,2013-03-04 04:42:00,
2013-03-04 04:51:00,26.0,16.0,-100.00,SE,130,14.0,20.0,62,0.00,,,0.00,,2013-03-04 04:51:00,
2013-03-04 05:01:00,27.0,16.0,-100.00,SE,125,11.0,20.0,62,0.00,,,0.00,,2013-03-04 05:01:00,
2013-03-04 05:11:00,26.0,16.0,-100.00,SE,135,12.0,18.0,62,0.00,,,0.00,,2013-03-04 05:11:00,
2013-03-04 05:22:00,26.0,16.0,-100.00,SE,140,14.0,21.0,62,0.00,,,0.00,,2013-03-04 05:22:00,
2013-03-04 05:31:00,26.0,16.0,-100.00,SE,140,14.0,19.0,64,0.00,,,0.00,,2013-03-04 05:31:00,
2013-03-04 05:42:00,26.0,16.0,-100.00,SE,140,17.0,24.0,65,0.00,,,0.00,,2013-03-04 05:42:00,
2013-03-04 05:52:00,25.0,16.0,-100.00,SE,145,25.0,33.0,68,0.00,,,0.00,,2013-03-04 05:52:00,
2013-03-04 06:01:00,24.0,16.0,-100.00,SE,140,22.0,29.0,72,0.00,,,0.00,,2013-03-04 06:01:00,
2013-03-04 06:11:00,24.0,18.0,-100.00,SSE,150,19.0,26.0,76,0.00,,,0.00,,2013-03-04 06:11:00,
2013-03-04 06:21:00,24.0,18.0,-100.00,SE,140,19.0,25.0,81,0.00,,,0.00,,2013-03-04 06:21:00,
2013-03-04 06:32:00,24.0,19.0,-100.00,SE,140,19.0,23.0,84,0.00,,,0.00,,2013-03-04 06:32:00,
2013-03-04 06:42:00,23.0,19.0,-100.00,SE,135,17.0,21.0,87,0.00,,,0.00,,2013-03-04 06:42:00,
2013-03-04 06:51:00,23.0,21.0,-100.00,SE,125,16.0,24.0,90,0.00,,,0.00,,2013-03-04 06:51:00,
2013-03-04 07:01:00,23.0,21.0,-100.00,SE,130,16.0,21.0,92,0.00,,,0.00,,2013-03-04 07:01:00,
2013-03-04 07:11:00,23.0,21.0,-100.00,SE,135,19.0,22.0,93,0.00,,,0.00,,2013-03-04 07:11:00,
2013-03-04 07:21:00,22.0,21.0,-100.00,SE,130,12.0,19.0,96,0.00,,,0.00,,2013-03-04 07:21:00,
2013-03-04 07:32:00,22.0,21.0,-100.00,ESE,120,13.0,20.0,97,0.00,,,0.00,,2013-03-04 07:32:00,
2013-03-04 07:41:00,22.0,21.0,-100.00,SE,125,13.0,20.0,97,0.00,,,0.00,,2013-03-04 07:41:00,
2013-03-04 07:51:00,22.0,21.0,-100.00,ESE,120,15.0,20.0,98,0.00,,,0.00,,2013-03-04 07:51:00,
2013-03-04 14:42:00,23.0,23.0,-100.00,ESE,110,18.0,24.0,99,0.00,,,0.00,,2013-03-04 14:42:00,
2013-03-04 14:52:00,23.0,23.0,-100.00,ESE,110,17.0,24.0,99,0.00,,,0.00,,2013-03-04 14:52:00,
2013-03-04 15:01:00,23.0,23.0,-100.00,ESE,110,19.0,22.0,99,0.00,,,0.00,,2013-03-04 15:01:00,
2013-03-04 15:11:00,23.0,23.0,-100.00,ESE,115,18.0,22.0,99,0.00,,,0.00,,2013-03-04 15:11:00,
2013-03-04 15:21:00,23.0,23.0,-100.00,ESE,105,17.0,23.0,99,0.00,,,0.00,,2013-03-04 15:21:00,
2013-03-04 15:32:00,23.0,23.0,-100.00,ESE,110,18.0,24.0,99,0.00,,,0.00,,2013-03-04 15:32:00,
2013-03-04 15:42:00,24.0,23.0,-100.00,ESE,105,18.0,26.0,99,0.00,,,0.00,,2013-03-04 15:42:00,
2013-03-04 15:51:00,24.0,23.0,-100.00,ESE,110,17.0,23.0,99,0.00,,,0.00,,2013-03-04 15:51:00,
2013-03-04 16:02:00,24.0,23.0,-100.00,ESE,115,14.0,25.0,99,0.00,,,0.00,,2013-03-04 16:02:00,
2013-03-04 16:11:00,24.0,23.0,-100.00,ESE,115,19.0,24.0,99,0.00,,,0.00,,2013-03-04 16:11:00,
2013-03-04 16:31:00,24.0,23.0,-100.00,ESE,120,16.0,23.0,99,0.00,,,0.00,,2013-03-04 16:31:00,
2013-03-04 16:42:00,24.0,23.0,-100.00,SE,125,15.0,24.0,98,0.00,,,0.00,,2013-03-04 16:42:00,
2013-03-04 16:52:00,24.0,23.0,-100.00,SE,130,18.0,26.0,98,0.00,,,0.00,,2013-03-04 16:52:00,
2013-03-04 17:11:00,24.0,23.0,-100.00,ESE,120,16.0,24.0,98,0.00,,,0.00,,2013-03-04 17:11:00,
2013-03-04 17:52:00,25.0,25.0,-100.00,ESE,120,14.0,24.0,96,0.00,,,0.00,,2013-03-04 17:52:00,
2013-03-04 18:01:00,25.0,23.0,-100.00,SE,130,21.0,26.0,96,0.00,,,0.00,,2013-03-04 18:01:00,
2013-03-04 18:11:00,25.0,23.0,-100.00,SE,130,19.0,27.0,96,0.00,,,0.00,,2013-03-04 18:11:00,
2013-03-04 18:21:00,25.0,23.0,-100.00,SE,130,19.0,27.0,96,0.00,,,0.00,,2013-03-04 18:21:00,
2013-03-04 18:32:00,24.0,23.0,-100.00,SE,125,16.0,26.0,97,0.00,,,0.00,,2013-03-04 18:32:00,
2013-03-04 18:42:00,24.0,23.0,-100.00,SE,130,15.0,24.0,98,0.00,,,0.00,,2013-03-04 18:42:00,
2013-03-04 19:32:00,24.0,23.0,-100.00,SE,135,17.0,24.0,98,0.00,,,0.00,,2013-03-04 19:32:00,
2013-03-04 19:42:00,24.0,23.0,-100.00,SE,125,16.0,22.0,98,0.00,,,0.00,,2013-03-04 19:42:00,
2013-03-04 19:51:00,24.0,23.0,-100.00,ESE,120,17.0,27.0,98,0.00,,,0.00,,2013-03-04 19:51:00,
2013-03-04 20:01:00,24.0,23.0,-100.00,SE,140,17.0,24.0,98,0.00,,,0.00,,2013-03-04 20:01:00,
2013-03-04 20:11:00,24.0,23.0,-100.00,SE,130,14.0,21.0,98,0.00,,,0.00,,2013-03-04 20:11:00,
2013-03-04 20:22:00,24.0,23.0,-100.00,SE,125,14.0,22.0,98,0.00,,,0.00,,2013-03-04 20:22:00,
2013-03-04 20:32:00,24.0,23.0,-100.00,SE,135,17.0,23.0,98,0.00,,,0.00,,2013-03-04 20:32:00,
2013-03-04 20:42:00,24.0,23.0,-100.00,ESE,120,15.0,20.0,98,0.00,,,0.00,,2013-03-04 20:42:00,
2013-03-04 20:52:00,24.0,23.0,-100.00,SE,130,19.0,22.0,98,0.00,,,0.00,,2013-03-04 20:52:00,
2013-03-04 21:02:00,24.0,23.0,-100.00,SE,135,17.0,23.0,98,0.00,,,0.00,,2013-03-04 21:02:00,
2013-03-04 21:11:00,24.0,23.0,-100.00,SE,130,12.0,23.0,98,0.00,,,0.00,,2013-03-04 21:11:00,
2013-03-04 21:21:00,24.0,23.0,-100.00,SE,125,15.0,19.0,98,0.00,,,0.00,,2013-03-04 21:21:00,
2013-03-04 21:32:00,24.0,23.0,-100.00,SE,125,14.0,22.0,98,0.00,,,0.00,,2013-03-04 21:32:00,
2013-03-04 21:42:00,24.0,23.0,-100.00,ESE,120,18.0,23.0,97,0.00,,,0.00,,2013-03-04 21:42:00,
2013-03-04 21:52:00,24.0,23.0,-100.00,SE,125,16.0,22.0,97,0.00,,,0.00,,2013-03-04 21:52:00,
2013-03-04 22:01:00,24.0,23.0,-100.00,ESE,120,17.0,22.0,97,0.00,,,0.00,,2013-03-04 22:01:00,
2013-03-04 22:12:00,24.0,23.0,-100.00,SE,130,12.0,21.0,97,0.00,,,0.00,,2013-03-04 22:12:00,
2013-03-04 22:22:00,23.0,23.0,-100.00,ESE,120,12.0,18.0,99,0.00,,,0.00,,2013-03-04 22:22:00,
2013-03-04 22:32:00,23.0,23.0,-100.00,ESE,115,12.0,17.0,99,0.00,,,0.00,,2013-03-04 22:32:00,
2013-03-04 22:42:00,23.0,23.0,-100.00,ESE,115,11.0,18.0,99,0.00,,,0.00,,2013-03-04 22:42:00,
2013-03-04 22:52:00,23.0,23.0,-100.00,ESE,110,9.0,14.0,99,0.00,,,0.00,,2013-03-04 22:52:00,
2013-03-04 23:11:00,23.0,23.0,-100.00,ESE,105,9.0,15.0,99,0.00,,,0.00,,2013-03-04 23:11:00,